Year,Month,Day,Hour,Minute,Value (Times are PST for temperature in C)
2012,08,28,00,00,13.50
2012,08,28,00,01,13.60
2012,08,28,00,02,13.60
2012,08,28,00,03,13.60
2012,08,28,00,04,13.60
2012,08,28,00,05,13.70
2012,08,28,00,06,13.70
2012,08,28,00,07,13.80
2012,08,28,00,08,13.80
2012,08,28,00,09,13.80
2012,08,28,00,10,13.80
2012,08,28,00,11,13.80
2012,08,28,00,12,13.80
2012,08,28,00,13,13.80
2012,08,28,00,14,13.80
2012,08,28,00,15,13.80
2012,08,28,00,16,13.80
2012,08,28,00,17,13.70
2012,08,28,00,18,13.70
2012,08,28,00,19,13.70
2012,08,28,00,20,13.70
2012,08,28,00,21,13.70
2012,08,28,00,22,13.70
2012,08,28,00,23,13.70
2012,08,28,00,24,13.70
2012,08,28,00,25,13.80
2012,08,28,00,26,13.80
2012,08,28,00,27,13.80
2012,08,28,00,28,13.90
2012,08,28,00,29,13.90
2012,08,28,00,30,13.90
2012,08,28,00,31,13.90
2012,08,28,00,32,13.90
2012,08,28,00,33,13.90
2012,08,28,00,34,13.90
2012,08,28,00,35,13.90
2012,08,28,00,36,13.90
2012,08,28,00,37,13.90
2012,08,28,00,38,13.90
2012,08,28,00,39,14.00
2012,08,28,00,40,14.00
2012,08,28,00,41,14.00
2012,08,28,00,42,14.00
2012,08,28,00,43,14.00
2012,08,28,00,44,13.90
2012,08,28,00,45,13.90
2012,08,28,00,46,13.90
2012,08,28,00,47,14.00
2012,08,28,00,48,14.00
2012,08,28,00,49,14.00
2012,08,28,00,50,14.00
2012,08,28,00,51,14.00
2012,08,28,00,52,13.90
2012,08,28,00,53,13.90
2012,08,28,00,54,13.90
2012,08,28,00,55,13.90
2012,08,28,00,56,13.90
2012,08,28,00,57,13.90
2012,08,28,00,58,13.90
2012,08,28,00,59,13.90
2012,08,28,01,00,13.90
2012,08,28,01,01,13.90
2012,08,28,01,02,13.90
2012,08,28,01,03,13.90
2012,08,28,01,04,13.90
2012,08,28,01,05,13.90
2012,08,28,01,06,13.90
2012,08,28,01,07,13.90
2012,08,28,01,08,13.90
2012,08,28,01,09,13.90
2012,08,28,01,10,13.90
2012,08,28,01,11,13.80
2012,08,28,01,12,13.80
2012,08,28,01,13,13.80
2012,08,28,01,14,13.80
2012,08,28,01,15,13.80
2012,08,28,01,16,13.80
2012,08,28,01,17,13.80
2012,08,28,01,18,13.80
2012,08,28,01,19,13.80
2012,08,28,01,20,13.80
2012,08,28,01,21,13.80
2012,08,28,01,22,13.80
2012,08,28,01,23,13.80
2012,08,28,01,24,13.80
2012,08,28,01,25,13.80
2012,08,28,01,26,13.80
2012,08,28,01,27,13.80
2012,08,28,01,28,13.90
2012,08,28,01,29,13.90
2012,08,28,01,30,13.90
2012,08,28,01,31,13.90
2012,08,28,01,32,14.00
2012,08,28,01,33,14.00
2012,08,28,01,34,14.10
2012,08,28,01,35,14.10
2012,08,28,01,36,14.10
2012,08,28,01,37,14.10
2012,08,28,01,38,14.10
2012,08,28,01,39,14.10
2012,08,28,01,40,14.10
2012,08,28,01,41,14.10
2012,08,28,01,42,14.20
2012,08,28,01,43,14.20
2012,08,28,01,44,14.20
2012,08,28,01,45,14.20
2012,08,28,01,46,14.20
2012,08,28,01,47,14.20
2012,08,28,01,48,14.20
2012,08,28,01,49,14.20
2012,08,28,01,50,14.20
2012,08,28,01,51,14.20
2012,08,28,01,52,14.20
2012,08,28,01,53,14.20
2012,08,28,01,54,14.20
2012,08,28,01,55,14.20
2012,08,28,01,56,14.20
2012,08,28,01,57,14.20
2012,08,28,01,58,14.20
2012,08,28,01,59,14.10
2012,08,28,02,00,14.20
2012,08,28,02,01,14.10
2012,08,28,02,02,14.10
2012,08,28,02,03,14.20
2012,08,28,02,04,14.20
2012,08,28,02,05,14.20
2012,08,28,02,06,14.20
2012,08,28,02,07,14.20
2012,08,28,02,08,14.30
2012,08,28,02,09,14.30
2012,08,28,02,10,14.30
2012,08,28,02,11,14.30
2012,08,28,02,12,14.40
2012,08,28,02,13,14.40
2012,08,28,02,14,14.40
2012,08,28,02,15,14.40
2012,08,28,02,16,14.40
2012,08,28,02,17,14.50
2012,08,28,02,18,14.50
2012,08,28,02,19,14.40
2012,08,28,02,20,14.40
2012,08,28,02,21,14.40
2012,08,28,02,22,14.40
2012,08,28,02,23,14.40
2012,08,28,02,24,14.40
2012,08,28,02,25,14.40
2012,08,28,02,26,14.40
2012,08,28,02,27,14.40
2012,08,28,02,28,14.40
2012,08,28,02,29,14.50
2012,08,28,02,30,14.50
2012,08,28,02,31,14.50
2012,08,28,02,32,14.60
2012,08,28,02,33,14.60
2012,08,28,02,34,14.60
2012,08,28,02,35,14.60
2012,08,28,02,36,14.60
2012,08,28,02,37,14.60
2012,08,28,02,38,14.60
2012,08,28,02,39,14.60
2012,08,28,02,40,14.60
2012,08,28,02,41,14.60
2012,08,28,02,42,14.60
2012,08,28,02,43,14.60
2012,08,28,02,44,14.60
2012,08,28,02,45,14.60
2012,08,28,02,46,14.60
2012,08,28,02,47,14.60
2012,08,28,02,48,14.60
2012,08,28,02,49,14.60
2012,08,28,02,50,14.60
2012,08,28,02,51,14.50
2012,08,28,02,52,14.50
2012,08,28,02,53,14.50
2012,08,28,02,54,14.40
2012,08,28,02,55,14.40
2012,08,28,02,56,14.40
2012,08,28,02,57,14.40
2012,08,28,02,58,14.40
2012,08,28,02,59,14.40
2012,08,28,03,00,14.40
2012,08,28,03,01,14.50
2012,08,28,03,02,14.50
2012,08,28,03,03,14.50
2012,08,28,03,04,14.50
2012,08,28,03,05,14.60
2012,08,28,03,06,14.60
2012,08,28,03,07,14.60
2012,08,28,03,08,14.60
2012,08,28,03,09,14.60
2012,08,28,03,10,14.50
2012,08,28,03,11,14.60
2012,08,28,03,12,14.50
2012,08,28,03,13,14.50
2012,08,28,03,14,14.60
2012,08,28,03,15,14.60
2012,08,28,03,16,14.60
2012,08,28,03,17,14.60
2012,08,28,03,18,14.60
2012,08,28,03,19,14.60
2012,08,28,03,20,14.60
2012,08,28,03,21,14.50
2012,08,28,03,22,14.50
2012,08,28,03,23,14.50
2012,08,28,03,24,14.50
2012,08,28,03,25,14.50
2012,08,28,03,26,14.50
2012,08,28,03,27,14.60
2012,08,28,03,28,14.60
2012,08,28,03,29,14.60
2012,08,28,03,30,14.60
2012,08,28,03,31,14.60
2012,08,28,03,32,14.60
2012,08,28,03,33,14.60
2012,08,28,03,34,14.60
2012,08,28,03,35,14.60
2012,08,28,03,36,14.60
2012,08,28,03,37,14.50
2012,08,28,03,38,14.50
2012,08,28,03,39,14.50
2012,08,28,03,40,14.50
2012,08,28,03,41,14.50
2012,08,28,03,42,14.50
2012,08,28,03,43,14.40
2012,08,28,03,44,14.40
2012,08,28,03,45,14.40
2012,08,28,03,46,14.30
2012,08,28,03,47,14.30
2012,08,28,03,48,14.30
2012,08,28,03,49,14.20
2012,08,28,03,50,14.20
2012,08,28,03,51,14.20
2012,08,28,03,52,14.10
2012,08,28,03,53,14.10
2012,08,28,03,54,14.10
2012,08,28,03,55,14.00
2012,08,28,03,56,14.00
2012,08,28,03,57,13.90
2012,08,28,03,58,13.90
2012,08,28,03,59,13.80
2012,08,28,04,00,13.80
2012,08,28,04,01,13.80
2012,08,28,04,02,13.80
2012,08,28,04,03,13.80
2012,08,28,04,04,13.80
2012,08,28,04,05,13.80
2012,08,28,04,06,13.90
2012,08,28,04,07,13.90
2012,08,28,04,08,13.80
2012,08,28,04,09,13.80
2012,08,28,04,10,13.80
2012,08,28,04,11,13.90
2012,08,28,04,12,13.90
2012,08,28,04,13,13.90
2012,08,28,04,14,13.90
2012,08,28,04,15,13.90
2012,08,28,04,16,13.90
2012,08,28,04,17,13.90
2012,08,28,04,18,13.90
2012,08,28,04,19,13.90
2012,08,28,04,20,13.90
2012,08,28,04,21,13.90
2012,08,28,04,22,13.90
2012,08,28,04,23,13.90
2012,08,28,04,24,13.90
2012,08,28,04,25,13.90
2012,08,28,04,26,13.90
2012,08,28,04,27,14.00
2012,08,28,04,28,14.00
2012,08,28,04,29,14.00
2012,08,28,04,30,14.00
2012,08,28,04,31,14.00
2012,08,28,04,32,14.00
2012,08,28,04,33,14.00
2012,08,28,04,34,13.90
2012,08,28,04,35,13.90
2012,08,28,04,36,13.90
2012,08,28,04,37,13.90
2012,08,28,04,38,13.90
2012,08,28,04,39,13.90
2012,08,28,04,40,13.80
2012,08,28,04,41,13.80
2012,08,28,04,42,13.80
2012,08,28,04,43,13.80
2012,08,28,04,44,13.90
2012,08,28,04,45,13.90
2012,08,28,04,46,13.90
2012,08,28,04,47,13.90
2012,08,28,04,48,13.90
2012,08,28,04,49,13.90
2012,08,28,04,50,13.90
2012,08,28,04,51,13.90
2012,08,28,04,52,13.90
2012,08,28,04,53,13.90
2012,08,28,04,54,13.90
2012,08,28,04,55,13.80
2012,08,28,04,56,13.80
2012,08,28,04,57,13.80
2012,08,28,04,58,13.80
2012,08,28,04,59,13.80
2012,08,28,05,00,13.80
2012,08,28,05,01,13.80
2012,08,28,05,02,13.80
2012,08,28,05,03,13.80
2012,08,28,05,04,13.80
2012,08,28,05,05,13.80
2012,08,28,05,06,13.80
2012,08,28,05,07,13.80
2012,08,28,05,08,13.80
2012,08,28,05,09,13.80
2012,08,28,05,10,13.80
2012,08,28,05,11,13.80
2012,08,28,05,12,13.80
2012,08,28,05,13,13.90
2012,08,28,05,14,13.90
2012,08,28,05,15,13.90
2012,08,28,05,16,13.90
2012,08,28,05,17,13.90
2012,08,28,05,18,13.90
2012,08,28,05,19,13.90
2012,08,28,05,20,13.90
2012,08,28,05,21,13.90
2012,08,28,05,22,14.00
2012,08,28,05,23,14.00
2012,08,28,05,24,14.00
2012,08,28,05,25,14.00
2012,08,28,05,26,14.00
2012,08,28,05,27,14.00
2012,08,28,05,28,14.00
2012,08,28,05,29,14.00
2012,08,28,05,30,14.00
2012,08,28,05,31,14.00
2012,08,28,05,32,14.00
2012,08,28,05,33,14.10
2012,08,28,05,34,14.10
2012,08,28,05,35,14.10
2012,08,28,05,36,14.10
2012,08,28,05,37,14.10
2012,08,28,05,38,14.10
2012,08,28,05,39,14.10
2012,08,28,05,40,14.10
2012,08,28,05,41,14.10
2012,08,28,05,42,14.00
2012,08,28,05,43,14.00
2012,08,28,05,44,13.90
2012,08,28,05,45,13.90
2012,08,28,05,46,13.90
2012,08,28,05,47,13.90
2012,08,28,05,48,13.80
2012,08,28,05,49,13.80
2012,08,28,05,50,13.80
2012,08,28,05,51,13.80
2012,08,28,05,52,13.80
2012,08,28,05,53,13.80
2012,08,28,05,54,13.70
2012,08,28,05,55,13.70
2012,08,28,05,56,13.70
2012,08,28,05,57,13.70
2012,08,28,05,58,13.60
2012,08,28,05,59,13.60
2012,08,28,06,00,13.60
2012,08,28,06,01,13.60
2012,08,28,06,02,13.60
2012,08,28,06,03,13.60
2012,08,28,06,04,13.60
2012,08,28,06,05,13.60
2012,08,28,06,06,13.60
2012,08,28,06,07,13.50
2012,08,28,06,08,13.40
2012,08,28,06,09,13.30
2012,08,28,06,10,13.30
2012,08,28,06,11,13.30
2012,08,28,06,12,13.20
2012,08,28,06,13,13.20
2012,08,28,06,14,13.10
2012,08,28,06,15,13.10
2012,08,28,06,16,13.00
2012,08,28,06,17,13.00
2012,08,28,06,18,13.00
2012,08,28,06,19,13.00
2012,08,28,06,20,12.90
2012,08,28,06,21,12.90
2012,08,28,06,22,12.80
2012,08,28,06,23,12.80
2012,08,28,06,24,12.70
2012,08,28,06,25,12.70
2012,08,28,06,26,12.60
2012,08,28,06,27,12.60
2012,08,28,06,28,12.50
2012,08,28,06,29,12.50
2012,08,28,06,30,12.40
2012,08,28,06,31,12.40
2012,08,28,06,32,12.30
2012,08,28,06,33,12.30
2012,08,28,06,34,12.30
2012,08,28,06,35,12.30
2012,08,28,06,36,12.30
2012,08,28,06,37,12.30
2012,08,28,06,38,12.30
2012,08,28,06,39,12.30
2012,08,28,06,40,12.30
2012,08,28,06,41,12.30
2012,08,28,06,42,12.40
2012,08,28,06,43,12.50
2012,08,28,06,44,12.50
2012,08,28,06,45,12.60
2012,08,28,06,46,12.60
2012,08,28,06,47,12.70
2012,08,28,06,48,12.70
2012,08,28,06,49,12.70
2012,08,28,06,50,12.70
2012,08,28,06,51,12.70
2012,08,28,06,52,12.80
2012,08,28,06,53,12.80
2012,08,28,06,54,12.80
2012,08,28,06,55,12.80
2012,08,28,06,56,12.80
2012,08,28,06,57,12.80
2012,08,28,06,58,12.80
2012,08,28,06,59,12.80
2012,08,28,07,00,12.80
2012,08,28,07,01,12.80
2012,08,28,07,02,12.80
2012,08,28,07,03,12.80
2012,08,28,07,04,12.80
2012,08,28,07,05,12.80
2012,08,28,07,06,12.80
2012,08,28,07,07,12.80
2012,08,28,07,08,12.80
2012,08,28,07,09,12.80
2012,08,28,07,10,12.80
2012,08,28,07,11,12.80
2012,08,28,07,12,12.80
2012,08,28,07,13,12.80
2012,08,28,07,14,12.90
2012,08,28,07,15,12.90
2012,08,28,07,16,12.90
2012,08,28,07,17,12.90
2012,08,28,07,18,12.90
2012,08,28,07,19,12.90
2012,08,28,07,20,12.90
2012,08,28,07,21,12.90
2012,08,28,07,22,12.90
2012,08,28,07,23,12.90
2012,08,28,07,24,12.90
2012,08,28,07,25,12.90
2012,08,28,07,26,13.00
2012,08,28,07,27,13.00
2012,08,28,07,28,13.00
2012,08,28,07,29,13.00
2012,08,28,07,30,13.10
2012,08,28,07,31,13.10
2012,08,28,07,32,13.10
2012,08,28,07,33,13.10
2012,08,28,07,34,13.20
2012,08,28,07,35,13.20
2012,08,28,07,36,13.30
2012,08,28,07,37,13.30
2012,08,28,07,38,13.30
2012,08,28,07,39,13.40
2012,08,28,07,40,13.50
2012,08,28,07,41,13.60
2012,08,28,07,42,13.60
2012,08,28,07,43,13.70
2012,08,28,07,44,13.70
2012,08,28,07,45,13.80
2012,08,28,07,46,13.90
2012,08,28,07,47,13.90
2012,08,28,07,48,14.00
2012,08,28,07,49,14.00
2012,08,28,07,50,14.10
2012,08,28,07,51,14.10
2012,08,28,07,52,14.10
2012,08,28,07,53,14.20
2012,08,28,07,54,14.20
2012,08,28,07,55,14.20
2012,08,28,07,56,14.20
2012,08,28,07,57,14.20
2012,08,28,07,58,14.20
2012,08,28,07,59,14.10
2012,08,28,08,00,14.10
2012,08,28,08,01,14.10
2012,08,28,08,02,14.10
2012,08,28,08,03,14.10
2012,08,28,08,04,14.10
2012,08,28,08,05,14.20
2012,08,28,08,06,14.30
2012,08,28,08,07,14.40
2012,08,28,08,08,14.50
2012,08,28,08,09,14.60
2012,08,28,08,10,14.70
2012,08,28,08,11,14.80
2012,08,28,08,12,14.80
2012,08,28,08,13,14.90
2012,08,28,08,14,15.00
2012,08,28,08,15,15.00
2012,08,28,08,16,15.00
2012,08,28,08,17,15.00
2012,08,28,08,18,15.10
2012,08,28,08,19,15.20
2012,08,28,08,20,15.30
2012,08,28,08,21,15.30
2012,08,28,08,22,15.40
2012,08,28,08,23,15.40
2012,08,28,08,24,15.50
2012,08,28,08,25,15.60
2012,08,28,08,26,15.70
2012,08,28,08,27,15.80
2012,08,28,08,28,15.90
2012,08,28,08,29,15.90
2012,08,28,08,30,16.00
2012,08,28,08,31,16.10
2012,08,28,08,32,16.10
2012,08,28,08,33,16.20
2012,08,28,08,34,16.20
2012,08,28,08,35,16.30
2012,08,28,08,36,16.30
2012,08,28,08,37,16.40
2012,08,28,08,38,16.40
2012,08,28,08,39,16.50
2012,08,28,08,40,16.40
2012,08,28,08,41,16.40
2012,08,28,08,42,16.40
2012,08,28,08,43,16.50
2012,08,28,08,44,16.60
2012,08,28,08,45,16.70
2012,08,28,08,46,16.90
2012,08,28,08,47,17.00
2012,08,28,08,48,17.10
2012,08,28,08,49,17.10
2012,08,28,08,50,17.20
2012,08,28,08,51,17.20
2012,08,28,08,52,17.10
2012,08,28,08,53,17.10
2012,08,28,08,54,17.00
2012,08,28,08,55,17.10
2012,08,28,08,56,17.10
2012,08,28,08,57,17.00
2012,08,28,08,58,17.00
2012,08,28,08,59,17.10
2012,08,28,09,00,17.10
2012,08,28,09,01,17.10
2012,08,28,09,02,17.00
2012,08,28,09,03,17.00
2012,08,28,09,04,17.10
2012,08,28,09,05,17.10
2012,08,28,09,06,17.10
2012,08,28,09,07,17.10
2012,08,28,09,08,17.10
2012,08,28,09,09,17.20
2012,08,28,09,10,17.30
2012,08,28,09,11,17.40
2012,08,28,09,12,17.40
2012,08,28,09,13,17.50
2012,08,28,09,14,17.50
2012,08,28,09,15,17.60
2012,08,28,09,16,17.70
2012,08,28,09,17,17.60
2012,08,28,09,18,17.60
2012,08,28,09,19,17.60
2012,08,28,09,20,17.60
2012,08,28,09,21,17.60
2012,08,28,09,22,17.70
2012,08,28,09,23,17.70
2012,08,28,09,24,17.80
2012,08,28,09,25,17.80
2012,08,28,09,26,17.90
2012,08,28,09,27,18.00
2012,08,28,09,28,18.20
2012,08,28,09,29,18.30
2012,08,28,09,30,18.30
2012,08,28,09,31,18.20
2012,08,28,09,32,18.10
2012,08,28,09,33,18.00
2012,08,28,09,34,17.90
2012,08,28,09,35,17.80
2012,08,28,09,36,17.80
2012,08,28,09,37,17.80
2012,08,28,09,38,17.80
2012,08,28,09,39,17.90
2012,08,28,09,40,18.00
2012,08,28,09,41,18.10
2012,08,28,09,42,18.10
2012,08,28,09,43,18.20
2012,08,28,09,44,18.20
2012,08,28,09,45,18.30
2012,08,28,09,46,18.20
2012,08,28,09,47,18.20
2012,08,28,09,48,18.20
2012,08,28,09,49,18.20
2012,08,28,09,50,18.20
2012,08,28,09,51,18.10
2012,08,28,09,52,18.10
2012,08,28,09,53,18.10
2012,08,28,09,54,18.20
2012,08,28,09,55,18.20
2012,08,28,09,56,18.20
2012,08,28,09,57,18.30
2012,08,28,09,58,18.30
2012,08,28,09,59,18.40
2012,08,28,10,00,18.40
2012,08,28,10,01,18.50
2012,08,28,10,02,18.70
2012,08,28,10,03,18.70
2012,08,28,10,04,18.80
2012,08,28,10,05,18.80
2012,08,28,10,06,18.80
2012,08,28,10,07,19.00
2012,08,28,10,08,19.10
2012,08,28,10,09,19.20
2012,08,28,10,10,19.10
2012,08,28,10,11,19.10
2012,08,28,10,12,19.00
2012,08,28,10,13,19.00
2012,08,28,10,14,18.90
2012,08,28,10,15,18.80
2012,08,28,10,16,18.60
2012,08,28,10,17,18.60
2012,08,28,10,18,18.60
2012,08,28,10,19,18.60
2012,08,28,10,20,18.70
2012,08,28,10,21,18.80
2012,08,28,10,22,18.80
2012,08,28,10,23,18.80
2012,08,28,10,24,18.80
2012,08,28,10,25,18.80
2012,08,28,10,26,18.90
2012,08,28,10,27,19.00
2012,08,28,10,28,19.00
2012,08,28,10,29,19.10
2012,08,28,10,30,19.00
2012,08,28,10,31,19.00
2012,08,28,10,32,19.00
2012,08,28,10,33,18.90
2012,08,28,10,34,18.90
2012,08,28,10,35,18.80
2012,08,28,10,36,18.80
2012,08,28,10,37,18.80
2012,08,28,10,38,18.90
2012,08,28,10,39,18.90
2012,08,28,10,40,18.90
2012,08,28,10,41,18.80
2012,08,28,10,42,18.70
2012,08,28,10,43,18.70
2012,08,28,10,44,18.70
2012,08,28,10,45,18.60
2012,08,28,10,46,18.50
2012,08,28,10,47,18.40
2012,08,28,10,48,18.40
2012,08,28,10,49,18.40
2012,08,28,10,50,18.30
2012,08,28,10,51,18.30
2012,08,28,10,52,18.30
2012,08,28,10,53,18.30
2012,08,28,10,54,18.30
2012,08,28,10,55,18.20
2012,08,28,10,56,18.20
2012,08,28,10,57,18.20
2012,08,28,10,58,18.20
2012,08,28,10,59,18.10
2012,08,28,11,00,18.10
2012,08,28,11,01,18.10
2012,08,28,11,02,18.10
2012,08,28,11,03,18.10
2012,08,28,11,04,18.10
2012,08,28,11,05,18.20
2012,08,28,11,06,18.30
2012,08,28,11,07,18.30
2012,08,28,11,08,18.30
2012,08,28,11,09,18.30
2012,08,28,11,10,18.40
2012,08,28,11,11,18.50
2012,08,28,11,12,18.50
2012,08,28,11,13,18.50
2012,08,28,11,14,18.50
2012,08,28,11,15,18.70
2012,08,28,11,16,18.70
2012,08,28,11,17,18.80
2012,08,28,11,18,18.90
2012,08,28,11,19,18.90
2012,08,28,11,20,18.80
2012,08,28,11,21,18.80
2012,08,28,11,22,18.80
2012,08,28,11,23,18.80
2012,08,28,11,24,18.80
2012,08,28,11,25,19.00
2012,08,28,11,26,19.10
2012,08,28,11,27,19.20
2012,08,28,11,28,19.10
2012,08,28,11,29,19.10
2012,08,28,11,30,19.00
2012,08,28,11,31,19.00
2012,08,28,11,32,19.00
2012,08,28,11,33,19.10
2012,08,28,11,34,19.10
2012,08,28,11,35,19.00
2012,08,28,11,36,19.00
2012,08,28,11,37,19.10
2012,08,28,11,38,19.10
2012,08,28,11,39,19.10
2012,08,28,11,40,19.00
2012,08,28,11,41,19.00
2012,08,28,11,42,18.90
2012,08,28,11,43,19.00
2012,08,28,11,44,19.10
2012,08,28,11,45,19.20
2012,08,28,11,46,19.40
2012,08,28,11,47,19.50
2012,08,28,11,48,19.40
2012,08,28,11,49,19.30
2012,08,28,11,50,19.30
2012,08,28,11,51,19.30
2012,08,28,11,52,19.30
2012,08,28,11,53,19.30
2012,08,28,11,54,19.30
2012,08,28,11,55,19.30
2012,08,28,11,56,19.30
2012,08,28,11,57,19.30
2012,08,28,11,58,19.20
2012,08,28,11,59,19.20
2012,08,28,12,00,19.10
2012,08,28,12,01,19.00
2012,08,28,12,02,18.90
2012,08,28,12,03,18.90
2012,08,28,12,04,18.90
2012,08,28,12,05,18.80
2012,08,28,12,06,18.70
2012,08,28,12,07,18.80
2012,08,28,12,08,18.80
2012,08,28,12,09,18.80
2012,08,28,12,10,18.80
2012,08,28,12,11,18.80
2012,08,28,12,12,18.90
2012,08,28,12,13,18.90
2012,08,28,12,14,19.00
2012,08,28,12,15,19.00
2012,08,28,12,16,19.00
2012,08,28,12,17,19.00
2012,08,28,12,18,18.90
2012,08,28,12,19,18.90
2012,08,28,12,20,19.00
2012,08,28,12,21,19.00
2012,08,28,12,22,18.90
2012,08,28,12,23,18.90
2012,08,28,12,24,18.80
2012,08,28,12,25,18.80
2012,08,28,12,26,18.80
2012,08,28,12,27,18.80
2012,08,28,12,28,18.90
2012,08,28,12,29,18.90
2012,08,28,12,30,18.90
2012,08,28,12,31,18.90
2012,08,28,12,32,18.90
2012,08,28,12,33,18.80
2012,08,28,12,34,18.90
2012,08,28,12,35,18.90
2012,08,28,12,36,18.80
2012,08,28,12,37,18.90
2012,08,28,12,38,18.80
2012,08,28,12,39,18.70
2012,08,28,12,40,18.70
2012,08,28,12,41,18.70
2012,08,28,12,42,18.60
2012,08,28,12,43,18.60
2012,08,28,12,44,18.70
2012,08,28,12,45,18.70
2012,08,28,12,46,18.80
2012,08,28,12,47,18.90
2012,08,28,12,48,19.00
2012,08,28,12,49,19.10
2012,08,28,12,50,19.00
2012,08,28,12,51,18.90
2012,08,28,12,52,18.90
2012,08,28,12,53,18.90
2012,08,28,12,54,18.90
2012,08,28,12,55,18.80
2012,08,28,12,56,18.80
2012,08,28,12,57,18.80
2012,08,28,12,58,18.80
2012,08,28,12,59,18.70
2012,08,28,13,00,18.80
2012,08,28,13,01,18.80
2012,08,28,13,02,18.80
2012,08,28,13,03,18.80
2012,08,28,13,04,18.70
2012,08,28,13,05,18.70
2012,08,28,13,06,18.60
2012,08,28,13,07,18.60
2012,08,28,13,08,18.50
2012,08,28,13,09,18.40
2012,08,28,13,10,18.40
2012,08,28,13,11,18.30
2012,08,28,13,12,18.30
2012,08,28,13,13,18.40
2012,08,28,13,14,18.40
2012,08,28,13,15,18.40
2012,08,28,13,16,18.40
2012,08,28,13,17,18.30
2012,08,28,13,18,18.30
2012,08,28,13,19,18.30
2012,08,28,13,20,18.30
2012,08,28,13,21,18.30
2012,08,28,13,22,18.40
2012,08,28,13,23,18.40
2012,08,28,13,24,18.40
2012,08,28,13,25,18.40
2012,08,28,13,26,18.30
2012,08,28,13,27,18.30
2012,08,28,13,28,18.30
2012,08,28,13,29,18.30
2012,08,28,13,30,18.30
2012,08,28,13,31,18.40
2012,08,28,13,32,18.40
2012,08,28,13,33,18.40
2012,08,28,13,34,18.40
2012,08,28,13,35,18.40
2012,08,28,13,36,18.40
2012,08,28,13,37,18.40
2012,08,28,13,38,18.30
2012,08,28,13,39,18.30
2012,08,28,13,40,18.20
2012,08,28,13,41,18.30
2012,08,28,13,42,18.30
2012,08,28,13,43,18.30
2012,08,28,13,44,18.20
2012,08,28,13,45,18.20
2012,08,28,13,46,18.20
2012,08,28,13,47,18.10
2012,08,28,13,48,18.10
2012,08,28,13,49,18.10
2012,08,28,13,50,18.00
2012,08,28,13,51,17.90
2012,08,28,13,52,17.90
2012,08,28,13,53,17.90
2012,08,28,13,54,17.90
2012,08,28,13,55,17.90
2012,08,28,13,56,17.90
2012,08,28,13,57,17.90
2012,08,28,13,58,17.90
2012,08,28,13,59,17.90
2012,08,28,14,00,17.80
2012,08,28,14,01,17.80
2012,08,28,14,02,17.80
2012,08,28,14,03,17.80
2012,08,28,14,04,17.80
2012,08,28,14,05,17.90
2012,08,28,14,06,17.90
2012,08,28,14,07,18.00
2012,08,28,14,08,18.10
2012,08,28,14,09,18.10
2012,08,28,14,10,18.10
2012,08,28,14,11,18.10
2012,08,28,14,12,18.10
2012,08,28,14,13,18.10
2012,08,28,14,14,18.10
2012,08,28,14,15,18.10
2012,08,28,14,16,18.10
2012,08,28,14,17,18.00
2012,08,28,14,18,18.00
2012,08,28,14,19,18.00
2012,08,28,14,20,18.10
2012,08,28,14,21,18.10
2012,08,28,14,22,18.00
2012,08,28,14,23,18.00
2012,08,28,14,24,18.10
2012,08,28,14,25,18.10
2012,08,28,14,26,18.10
2012,08,28,14,27,18.10
2012,08,28,14,28,18.10
2012,08,28,14,29,18.00
2012,08,28,14,30,18.00
2012,08,28,14,31,18.00
2012,08,28,14,32,18.00
2012,08,28,14,33,18.00
2012,08,28,14,34,18.00
2012,08,28,14,35,17.90
2012,08,28,14,36,18.00
2012,08,28,14,37,18.00
2012,08,28,14,38,18.10
2012,08,28,14,39,18.10
2012,08,28,14,40,18.10
2012,08,28,14,41,18.10
2012,08,28,14,42,18.10
2012,08,28,14,43,18.10
2012,08,28,14,44,18.20
2012,08,28,14,45,18.20
2012,08,28,14,46,18.20
2012,08,28,14,47,18.20
2012,08,28,14,48,18.20
2012,08,28,14,49,18.20
2012,08,28,14,50,18.20
2012,08,28,14,51,18.20
2012,08,28,14,52,18.10
2012,08,28,14,53,18.10
2012,08,28,14,54,18.10
2012,08,28,14,55,18.10
2012,08,28,14,56,18.10
2012,08,28,14,57,18.10
2012,08,28,14,58,18.10
2012,08,28,14,59,18.10
2012,08,28,15,00,18.20
2012,08,28,15,01,18.20
2012,08,28,15,02,18.30
2012,08,28,15,03,18.40
2012,08,28,15,04,18.40
2012,08,28,15,05,18.30
2012,08,28,15,06,18.30
2012,08,28,15,07,18.40
2012,08,28,15,08,18.40
2012,08,28,15,09,18.60
2012,08,28,15,10,18.60
2012,08,28,15,11,18.70
2012,08,28,15,12,18.80
2012,08,28,15,13,18.80
2012,08,28,15,14,18.90
2012,08,28,15,15,19.10
2012,08,28,15,16,19.10
2012,08,28,15,17,19.20
2012,08,28,15,18,19.10
2012,08,28,15,19,19.00
2012,08,28,15,20,18.90
2012,08,28,15,21,18.90
2012,08,28,15,22,18.80
2012,08,28,15,23,18.80
2012,08,28,15,24,18.70
2012,08,28,15,25,18.70
2012,08,28,15,26,18.70
2012,08,28,15,27,18.80
2012,08,28,15,28,18.80
2012,08,28,15,29,18.70
2012,08,28,15,30,18.80
2012,08,28,15,31,18.80
2012,08,28,15,32,18.80
2012,08,28,15,33,18.70
2012,08,28,15,34,18.80
2012,08,28,15,35,18.70
2012,08,28,15,36,18.80
2012,08,28,15,37,18.80
2012,08,28,15,38,18.80
2012,08,28,15,39,18.80
2012,08,28,15,40,18.80
2012,08,28,15,41,18.80
2012,08,28,15,42,18.80
2012,08,28,15,43,18.80
2012,08,28,15,44,18.80
2012,08,28,15,45,18.80
2012,08,28,15,46,18.80
2012,08,28,15,47,18.80
2012,08,28,15,48,18.90
2012,08,28,15,49,18.90
2012,08,28,15,50,19.00
2012,08,28,15,51,19.10
2012,08,28,15,52,19.10
2012,08,28,15,53,19.20
2012,08,28,15,54,19.30
2012,08,28,15,55,19.30
2012,08,28,15,56,19.30
2012,08,28,15,57,19.20
2012,08,28,15,58,19.20
2012,08,28,15,59,19.20
2012,08,28,16,00,19.20
2012,08,28,16,01,19.20
2012,08,28,16,02,19.20
2012,08,28,16,03,19.20
2012,08,28,16,04,19.20
2012,08,28,16,05,19.20
2012,08,28,16,06,19.20
2012,08,28,16,07,19.20
2012,08,28,16,08,19.20
2012,08,28,16,09,19.20
2012,08,28,16,10,19.20
2012,08,28,16,11,19.20
2012,08,28,16,12,19.20
2012,08,28,16,13,19.20
2012,08,28,16,14,19.20
2012,08,28,16,15,19.20
2012,08,28,16,16,19.20
2012,08,28,16,17,19.20
2012,08,28,16,18,19.20
2012,08,28,16,19,19.20
2012,08,28,16,20,19.20
2012,08,28,16,21,19.30
2012,08,28,16,22,19.30
2012,08,28,16,23,19.30
2012,08,28,16,24,19.30
2012,08,28,16,25,19.30
2012,08,28,16,26,19.30
2012,08,28,16,27,19.20
2012,08,28,16,28,19.10
2012,08,28,16,29,19.10
2012,08,28,16,30,19.00
2012,08,28,16,31,19.00
2012,08,28,16,32,19.00
2012,08,28,16,33,19.00
2012,08,28,16,34,18.90
2012,08,28,16,35,18.90
2012,08,28,16,36,18.80
2012,08,28,16,37,18.80
2012,08,28,16,38,18.70
2012,08,28,16,39,18.70
2012,08,28,16,40,18.60
2012,08,28,16,41,18.50
2012,08,28,16,42,18.50
2012,08,28,16,43,18.40
2012,08,28,16,44,18.30
2012,08,28,16,45,18.20
2012,08,28,16,46,18.20
2012,08,28,16,47,18.10
2012,08,28,16,48,18.00
2012,08,28,16,49,18.00
2012,08,28,16,50,17.90
2012,08,28,16,51,17.80
2012,08,28,16,52,17.80
2012,08,28,16,53,17.70
2012,08,28,16,54,17.60
2012,08,28,16,55,17.50
2012,08,28,16,56,17.40
2012,08,28,16,57,17.30
2012,08,28,16,58,17.30
2012,08,28,16,59,17.20
2012,08,28,17,00,17.10
2012,08,28,17,01,17.00
2012,08,28,17,02,16.90
2012,08,28,17,03,16.80
2012,08,28,17,04,16.80
2012,08,28,17,05,16.80
2012,08,28,17,06,16.70
2012,08,28,17,07,16.70
2012,08,28,17,08,16.60
2012,08,28,17,09,16.60
2012,08,28,17,10,16.60
2012,08,28,17,11,16.60
2012,08,28,17,12,16.60
2012,08,28,17,13,16.60
2012,08,28,17,14,16.60
2012,08,28,17,15,16.50
2012,08,28,17,16,16.50
2012,08,28,17,17,16.50
2012,08,28,17,18,16.50
2012,08,28,17,19,16.50